• In Österreich
  • Länderverzeichnis
  • Für 7 Tage
  • Wassertemperatur
  • Satellitenkarten
  • Wetterkarte
  • News
  • Widgets
  • user-avatar
    Anmelden

    Stündliche Wetter Chyzhove

    Heute, 14 August, Dienstag

    Zeit Temperatur Niederschläge Wind Luftdruck Luftfeuchtigkeit
    00:00 +20°C° 0 mm 1 m/S 747 mmHg 65%
    01:00 +20°C° 0 mm 1 m/S 747 mmHg 65%
    02:00 +19°C° 0 mm 2 m/S 746 mmHg 65%
    03:00 +19°C° 0 mm 2 m/S 746 mmHg 65%
    04:00 +19°C° 0 mm 2 m/S 747 mmHg 65%
    05:00 +20°C° 0 mm 2 m/S 747 mmHg 66%
    06:00 +21°C° 0 mm 2 m/S 747 mmHg 65%
    07:00 +22°C° 0 mm 3 m/S 747 mmHg 65%
    08:00 +24°C° 0 mm 3 m/S 747 mmHg 62%
    09:00 +26°C° 0 mm 3 m/S 747 mmHg 58%
    10:00 +27°C° 0 mm 3 m/S 747 mmHg 54%
    11:00 +29°C° 0 mm 3 m/S 747 mmHg 50%
    12:00 +30°C° 0 mm 3 m/S 747 mmHg 47%
    13:00 +31°C° 0 mm 3 m/S 747 mmHg 45%
    14:00 +31°C° 0 mm 2 m/S 747 mmHg 42%
    15:00 +31°C° 0 mm 2 m/S 747 mmHg 44%
    16:00 +31°C° 0 mm 1 m/S 747 mmHg 46%
    17:00 +31°C° 0 mm 1 m/S 747 mmHg 48%
    18:00 +29°C° 0 mm 1 m/S 747 mmHg 51%
    19:00 +27°C° 0 mm 1 m/S 747 mmHg 54%
    20:00 +25°C° 0 mm 2 m/S 747 mmHg 57%
    21:00 +24°C° 0 mm 2 m/S 747 mmHg 58%
    22:00 +24°C° 0 mm 2 m/S 747 mmHg 59%
    23:00 +23°C° 0 mm 2 m/S 747 mmHg 59%

    Morgen, 15 August, Mittwoch

    Zeit Temperatur Niederschläge Wind Luftdruck Luftfeuchtigkeit
    00:00 +23°C° 0 mm 2 m/S 747 mmHg 60%
    01:00 +21°C° 0 mm 3 m/S 747 mmHg 61%
    02:00 +21°C° 0 mm 3 m/S 747 mmHg 61%
    03:00 +21°C° 0 mm 3 m/S 747 mmHg 62%
    04:00 +20°C° 0 mm 3 m/S 747 mmHg 64%
    05:00 +20°C° 0 mm 3 m/S 747 mmHg 65%
    06:00 +21°C° 0 mm 3 m/S 747 mmHg 62%
    07:00 +24°C° 0 mm 3 m/S 747 mmHg 59%
    08:00 +26°C° 0 mm 3 m/S 747 mmHg 56%
    09:00 +28°C° 0 mm 4 m/S 747 mmHg 51%
    10:00 +30°C° 0 mm 4 m/S 747 mmHg 46%
    11:00 +32°C° 0 mm 4 m/S 747 mmHg 42%
    12:00 +33°C° 0 mm 4 m/S 747 mmHg 39%
    13:00 +33°C° 0 mm 4 m/S 747 mmHg 36%
    14:00 +34°C° 0 mm 4 m/S 747 mmHg 33%
    15:00 +33°C° 0 mm 4 m/S 747 mmHg 36%
    16:00 +33°C° 0 mm 3 m/S 746 mmHg 40%
    17:00 +31°C° 0 mm 3 m/S 746 mmHg 43%
    18:00 +29°C° 0 mm 2 m/S 746 mmHg 46%
    19:00 +27°C° 0 mm 2 m/S 746 mmHg 48%
    20:00 +25°C° 0 mm 2 m/S 746 mmHg 51%
    21:00 +24°C° 0 mm 2 m/S 746 mmHg 51%
    22:00 +24°C° 0 mm 2 m/S 746 mmHg 52%
    23:00 +23°C° 0 mm 2 m/S 746 mmHg 53%

    übermorgen, 16 August, Donnerstag

    Zeit Temperatur Niederschläge Wind Luftdruck Luftfeuchtigkeit
    00:00 +23°C° 0 mm 2 m/S 746 mmHg 53%
    01:00 +21°C° 0 mm 2 m/S 746 mmHg 54%
    02:00 +21°C° 0 mm 2 m/S 747 mmHg 54%
    03:00 +20°C° 0 mm 2 m/S 746 mmHg 56%
    04:00 +21°C° 0 mm 1 m/S 746 mmHg 58%
    05:00 +20°C° 0 mm 1 m/S 746 mmHg 60%
    06:00 +22°C° 0 mm 1 m/S 747 mmHg 56%
    07:00 +24°C° 0 mm 1 m/S 747 mmHg 53%
    08:00 +26°C° 0 mm 1 m/S 747 mmHg 50%
    09:00 +28°C° 0 mm 1 m/S 747 mmHg 47%
    10:00 +29°C° 0 mm 1 m/S 747 mmHg 44%
    11:00 +31°C° 0 mm 1 m/S 747 mmHg 41%
    12:00 +31°C° 0 mm 2 m/S 747 mmHg 39%
    13:00 +32°C° 0 mm 2 m/S 747 mmHg 37%
    14:00 +32°C° 0 mm 2 m/S 747 mmHg 36%
    15:00 +31°C° 0 mm 2 m/S 747 mmHg 41%
    16:00 +31°C° 0 mm 2 m/S 747 mmHg 46%
    17:00 +30°C° 0 mm 2 m/S 747 mmHg 52%
    18:00 +28°C° 0 mm 2 m/S 747 mmHg 58%
    19:00 +26°C° 0 mm 2 m/S 747 mmHg 64%
    20:00 +24°C° 0 mm 2 m/S 747 mmHg 70%
    21:00 +24°C° 0,6 mm 3 m/S 747 mmHg 74%
    22:00 +22°C° 0,6 mm 3 m/S 747 mmHg 78%
    23:00 +21°C° 0,6 mm 3 m/S 747 mmHg 81%

    17 August, Freitag

    Zeit Temperatur Niederschläge Wind Luftdruck Luftfeuchtigkeit
    00:00 +21°C° 0,1 mm 3 m/S 747 mmHg 81%
    01:00 +20°C° 0,1 mm 3 m/S 747 mmHg 81%
    02:00 +20°C° 0,1 mm 3 m/S 747 mmHg 81%
    03:00 +20°C° 0 mm 2 m/S 747 mmHg 81%
    04:00 +20°C° 0 mm 2 m/S 747 mmHg 82%
    05:00 +19°C° 0 mm 2 m/S 747 mmHg 82%
    06:00 +21°C° 0,1 mm 2 m/S 747 mmHg 78%
    07:00 +23°C° 0,1 mm 2 m/S 747 mmHg 75%
    08:00 +24°C° 0,1 mm 3 m/S 748 mmHg 71%
    09:00 +26°C° 0 mm 2 m/S 748 mmHg 65%
    10:00 +27°C° 0 mm 2 m/S 748 mmHg 59%
    11:00 +29°C° 0 mm 2 m/S 748 mmHg 53%
    12:00 +30°C° 0 mm 2 m/S 747 mmHg 50%
    13:00 +30°C° 0 mm 2 m/S 747 mmHg 48%
    14:00 +31°C° 0 mm 2 m/S 747 mmHg 45%
    15:00 +30°C° 0 mm 2 m/S 747 mmHg 48%
    16:00 +30°C° 0 mm 2 m/S 747 mmHg 51%
    17:00 +30°C° 0 mm 2 m/S 747 mmHg 53%
    18:00 +28°C° 0 mm 2 m/S 747 mmHg 58%
    19:00 +26°C° 0 mm 2 m/S 747 mmHg 63%
    20:00 +24°C° 0 mm 2 m/S 747 mmHg 68%
    21:00 +23°C° 0,6 mm 2 m/S 747 mmHg 73%
    22:00 +23°C° 0,6 mm 2 m/S 747 mmHg 78%
    23:00 +21°C° 0,6 mm 2 m/S 747 mmHg 83%

    18 August, Samstag

    Zeit Temperatur Niederschläge Wind Luftdruck Luftfeuchtigkeit
    00:00 +20°C° 0,3 mm 2 m/S 747 mmHg 85%
    01:00 +20°C° 0,3 mm 2 m/S 747 mmHg 86%
    02:00 +20°C° 0,3 mm 2 m/S 748 mmHg 88%
    03:00 +19°C° 0,1 mm 2 m/S 748 mmHg 89%
    04:00 +19°C° 0,1 mm 2 m/S 748 mmHg 90%
    05:00 +19°C° 0,1 mm 2 m/S 748 mmHg 91%
    06:00 +20°C° 0 mm 3 m/S 748 mmHg 86%
    07:00 +21°C° 0 mm 3 m/S 748 mmHg 82%
    08:00 +24°C° 0 mm 3 m/S 749 mmHg 77%
    09:00 +25°C° 0,6 mm 3 m/S 749 mmHg 72%
    10:00 +26°C° 0,6 mm 3 m/S 749 mmHg 67%
    11:00 +28°C° 0,6 mm 4 m/S 749 mmHg 62%
    12:00 +28°C° 0,7 mm 3 m/S 748 mmHg 61%
    13:00 +28°C° 0,7 mm 3 m/S 748 mmHg 59%
    14:00 +29°C° 0,7 mm 3 m/S 748 mmHg 58%
    15:00 +28°C° 0,9 mm 3 m/S 748 mmHg 62%
    16:00 +27°C° 0,9 mm 3 m/S 748 mmHg 67%
    17:00 +26°C° 0,9 mm 3 m/S 748 mmHg 72%
    18:00 +25°C° 0,2 mm 3 m/S 748 mmHg 74%
    19:00 +24°C° 0,2 mm 3 m/S 749 mmHg 77%
    20:00 +22°C° 0,2 mm 3 m/S 749 mmHg 79%
    21:00 +21°C° 0,4 mm 3 m/S 749 mmHg 80%
    22:00 +20°C° 0,4 mm 3 m/S 749 mmHg 80%
    23:00 +20°C° 0,4 mm 3 m/S 749 mmHg 81%

    19 August, Sonntag

    Zeit Temperatur Niederschläge Wind Luftdruck Luftfeuchtigkeit
    00:00 +19°C° 0 mm 3 m/S 749 mmHg 80%
    01:00 +19°C° 0 mm 3 m/S 749 mmHg 80%
    02:00 +18°C° 0 mm 3 m/S 749 mmHg 79%
    03:00 +18°C° 0 mm 3 m/S 749 mmHg 79%
    04:00 +17°C° 0 mm 3 m/S 749 mmHg 78%
    05:00 +17°C° 0 mm 3 m/S 749 mmHg 78%
    06:00 +18°C° 0,2 mm 4 m/S 749 mmHg 74%
    07:00 +19°C° 0,2 mm 4 m/S 750 mmHg 70%
    08:00 +21°C° 0,2 mm 4 m/S 750 mmHg 66%
    09:00 +22°C° 0,1 mm 4 m/S 750 mmHg 62%
    10:00 +25°C° 0,1 mm 4 m/S 749 mmHg 58%
    11:00 +26°C° 0,1 mm 4 m/S 749 mmHg 55%
    12:00 +27°C° 0 mm 4 m/S 749 mmHg 53%
    13:00 +27°C° 0 mm 4 m/S 749 mmHg 51%
    14:00 +28°C° 0 mm 3 m/S 749 mmHg 50%
    15:00 +28°C° 0 mm 3 m/S 749 mmHg 52%
    16:00 +28°C° 0 mm 3 m/S 749 mmHg 54%
    17:00 +27°C° 0 mm 2 m/S 748 mmHg 56%
    18:00 +26°C° 0 mm 3 m/S 748 mmHg 59%
    19:00 +24°C° 0 mm 3 m/S 748 mmHg 61%
    20:00 +21°C° 0 mm 3 m/S 748 mmHg 64%
    21:00 +20°C° 0,2 mm 3 m/S 748 mmHg 65%
    22:00 +19°C° 0,2 mm 3 m/S 748 mmHg 66%
    23:00 +18°C° 0,2 mm 3 m/S 748 mmHg 67%
    Mehr zeigen